Weather reports worldwide

Advertisment
Shoreham Airport, United Kingdom (3876): temperature & dewpoint: 15.10.2017 06:00:00 - 21.10.2017 06:00:00 (BST)Shoreham Airport, United Kingdom (3876): wind speed & gusts: 15.10.2017 06:00:00 - 21.10.2017 06:00:00 (BST)Shoreham Airport, United Kingdom (3876): wind direction: 15.10.2017 06:00:00 - 21.10.2017 06:00:00 (BST)Shoreham Airport, United Kingdom (3876): reduced air pressure: 15.10.2017 06:00:00 - 21.10.2017 06:00:00 (BST)Shoreham Airport, United Kingdom (3876): visibility: 15.10.2017 06:00:00 - 21.10.2017 06:00:00 (BST)Shoreham Airport, United Kingdom (3876): precipitation: 15.10.2017 06:00:00 - 21.10.2017 06:00:00 (BST)
Date & Time tt [°C] td [°C] ff [km/h] ff [kn] fx [km/h] fx [kn] dd ppp [hPa] vv [km] rr [mm]
21.10.2017 06:00:00 - - - - - - - - - -
21.10.2017 05:00:00 14,8 13,2 35 19 54 29 SW 1003,4 - -
21.10.2017 04:00:00 14,3 12,9 34 18 46 25 SW 1003,8 - -
21.10.2017 03:00:00 14,3 13,4 35 19 57 31 SW 1003,6 - -
21.10.2017 02:00:00 15,3 14,3 39 21 59 32 S 1003,6 - -
21.10.2017 01:00:00 15,0 13,6 37 20 59 32 S 1004,4 - -
21.10.2017 00:00:00 14,3 12,8 34 18 48 26 S 1005,9 - -
20.10.2017 23:00:00 15,6 11,6 29 16 46 25 S 1006,7 - -
20.10.2017 22:00:00 15,5 10,8 28 15 - - S 1007,9 - -
20.10.2017 21:00:00 15,2 10,9 28 15 - - SSW 1008,6 - 0,0
20.10.2017 20:00:00 14,6 10,3 28 15 - - SSW 1009,3 10 0,0
20.10.2017 19:00:00 14,4 9,3 28 15 - - SW 1009,9 10 0,0
20.10.2017 18:00:00 14,4 10,4 24 13 - - SW 1009,8 10 0,0
20.10.2017 17:00:00 14,0 9,1 29 16 50 27 WSW 1009,8 10 0,0
20.10.2017 16:00:00 14,4 8,2 28 15 48 26 WSW 1010,0 10 0,0
20.10.2017 15:00:00 13,9 7,1 34 18 57 31 WSW 1009,8 10 0,0
20.10.2017 14:00:00 14,6 7,4 35 19 57 31 WSW 1009,3 10 0,0
20.10.2017 13:00:00 14,3 7,7 35 19 54 29 WSW 1008,7 10 0,0
20.10.2017 12:00:00 14,6 9,0 35 19 61 33 W 1008,2 10 0,0
20.10.2017 11:00:00 13,1 8,5 41 22 65 35 W 1007,5 - 0,0
20.10.2017 10:00:00 13,3 9,6 39 21 55 30 W 1006,3 - 0,0
20.10.2017 09:00:00 12,8 9,7 37 20 52 28 W 1005,1 - 0,0
20.10.2017 08:00:00 13,1 9,7 35 19 63 34 W 1003,4 - 0,0
20.10.2017 07:00:00 13,5 10,5 42 23 70 38 WSW 1001,8 - 0,0
20.10.2017 06:00:00 13,8 10,9 48 26 70 38 WSW 1000,8 - 0,0
20.10.2017 05:00:00 13,8 11,1 50 27 70 38 WSW 1000,0 - 0,0
20.10.2017 04:00:00 13,1 11,9 46 25 78 42 WSW 999,9 - 0,8
20.10.2017 03:00:00 14,0 11,0 42 23 67 36 SW 999,9 - 0,0
20.10.2017 02:00:00 14,1 10,3 44 24 61 33 SW 1000,2 - 0,0
20.10.2017 01:00:00 14,0 10,5 41 22 54 29 SW 1000,3 - 0,0
20.10.2017 00:00:00 14,2 13,2 31 17 61 33 SW 999,9 - 1,0
19.10.2017 23:00:00 14,5 13,5 48 26 72 39 S 1000,0 - 0,6
19.10.2017 22:00:00 14,2 12,9 35 19 68 37 S 1000,7 - 4,6
19.10.2017 21:00:00 14,7 13,0 29 16 59 32 SSW 1001,3 - 1,2
19.10.2017 20:00:00 16,4 14,2 26 14 - - S 1001,7 10 0,0
19.10.2017 19:00:00 16,4 14,8 24 13 - - S 1001,7 9 0,0
19.10.2017 18:00:00 16,2 14,6 21 11 - - S 1002,2 7 0,0
19.10.2017 17:00:00 16,1 15,0 21 11 - - S 1002,5 6 0,6
19.10.2017 16:00:00 16,0 14,6 22 12 - - SSW 1002,8 7 0,0
19.10.2017 15:00:00 16,3 15,1 28 15 - - SSW 1002,7 3,5 0,0
19.10.2017 14:00:00 16,5 15,3 24 13 - - SSW 1002,8 5 0,0
19.10.2017 13:00:00 16,3 14,9 18 10 - - S 1003,4 6 0,0
19.10.2017 12:00:00 16,2 14,5 18 10 - - SSE 1004,4 8 0,0
19.10.2017 11:00:00 16,0 14,9 13 7 - - SE 1004,8 9 0,0
19.10.2017 10:00:00 16,2 14,8 11 6 - - ESE 1004,7 6 0,0
19.10.2017 09:00:00 15,8 15,0 15 8 - - ESE 1005,5 6 0,0
19.10.2017 08:00:00 15,5 15,1 13 7 - - E 1005,7 3,2 0,0
19.10.2017 07:00:00 15,8 15,5 13 7 - - ESE 1006,0 - 0,0
19.10.2017 06:00:00 15,7 15,5 11 6 - - ESE 1007,0 - 0,0
19.10.2017 05:00:00 15,3 15,1 9 5 - - E 1007,1 - 0,0
19.10.2017 04:00:00 14,8 14,6 5 3 - - ESE 1007,8 - 0,0
19.10.2017 03:00:00 15,1 14,8 4 2 - - ESE 1008,7 - 0,0
19.10.2017 02:00:00 15,7 15,4 8 4 - - SE 1009,3 - 0,0
19.10.2017 01:00:00 15,7 15,4 5 3 - - SE 1009,3 - 0,0
19.10.2017 00:00:00 15,8 15,5 9 5 - - SSE 1009,9 - 0,0
18.10.2017 23:00:00 15,5 15,1 8 4 - - SE 1010,1 - 0,8
18.10.2017 22:00:00 15,7 15,2 9 5 - - ESE 1010,0 - 0,0
18.10.2017 21:00:00 15,6 14,9 4 2 - - SE 1010,1 - 0,0
18.10.2017 20:00:00 16,0 15,2 8 4 - - S 1010,5 6 0,0
18.10.2017 19:00:00 15,9 15,1 9 5 - - S 1010,4 4,0 0,0
18.10.2017 18:00:00 16,1 15,1 8 4 - - S 1010,1 4,5 0,0
18.10.2017 17:00:00 16,4 15,4 8 4 - - SSE 1009,7 4,0 0,0
18.10.2017 16:00:00 16,8 15,7 11 6 - - S 1010,0 4,5 0,0
18.10.2017 15:00:00 17,1 15,8 9 5 - - SSE 1010,2 4,0 0,0
18.10.2017 14:00:00 17,4 16,8 9 5 - - ESE 1010,4 2,8 0,0
18.10.2017 13:00:00 15,6 15,3 0 0 - - N 1011,0 3,0 0,0
18.10.2017 12:00:00 13,9 13,6 9 5 - - N 1011,0 3,0 0,2
18.10.2017 11:00:00 13,2 12,8 8 4 - - N 1011,2 2,5 0,8
18.10.2017 10:00:00 13,5 13,1 8 4 - - N 1011,4 4,0 0,0
18.10.2017 09:00:00 12,7 12,3 9 5 - - N 1011,3 4,5 0,2
18.10.2017 08:00:00 12,1 11,6 13 7 - - N 1011,0 5 0,2
18.10.2017 07:00:00 11,9 11,3 13 7 - - N 1011,2 - 0,4
18.10.2017 06:00:00 11,9 11,0 11 6 - - NNE 1011,7 - 0,2
18.10.2017 05:00:00 11,7 10,2 15 8 - - N 1012,0 - 0,0
18.10.2017 04:00:00 11,8 9,9 21 11 - - N 1012,5 - 0,0
18.10.2017 03:00:00 12,0 10,1 16 9 - - N 1013,0 - 0,0
18.10.2017 02:00:00 11,9 10,1 15 8 - - N 1013,6 - 0,0
18.10.2017 01:00:00 11,8 9,7 15 8 - - N 1014,4 - 0,0
18.10.2017 00:00:00 12,4 9,7 11 6 - - N 1014,6 - 0,0
17.10.2017 23:00:00 11,6 9,6 13 7 - - N 1015,5 - 0,0
17.10.2017 22:00:00 11,1 9,2 5 3 - - NNE 1016,4 - 0,0
17.10.2017 21:00:00 11,5 9,3 8 4 - - ENE 1016,6 - 0,0
17.10.2017 20:00:00 11,4 9,2 9 5 - - ENE 1017,0 - 0,0
17.10.2017 19:00:00 11,3 8,7 5 3 - - NNE 1017,4 10 0,0
17.10.2017 18:00:00 12,6 9,5 5 3 - - N 1017,5 10 0,0
17.10.2017 17:00:00 14,2 9,7 0 0 - - N 1017,8 10 0,0
17.10.2017 16:00:00 14,7 10,0 0 0 - - N 1018,4 10 0,0
17.10.2017 15:00:00 14,9 8,9 0 0 - - N 1018,8 10 0,0
17.10.2017 14:00:00 14,8 9,6 0 0 - - N 1019,9 10 0,0
17.10.2017 13:00:00 13,4 10,5 0 0 - - N 1021,1 10 0,4
17.10.2017 12:00:00 13,5 10,7 0 0 - - N 1021,3 10 0,0
17.10.2017 11:00:00 12,9 10,8 0 0 - - N 1021,1 10 0,0
17.10.2017 10:00:00 12,3 10,8 0 0 - - N 1021,3 10 0,0
17.10.2017 09:00:00 11,1 9,9 0 0 - - N 1021,0 10 0,0
17.10.2017 08:00:00 9,6 8,1 8 4 - - NW 1020,5 10 0,0
17.10.2017 07:00:00 9,9 8,0 4 2 - - N 1020,4 - 0,0
17.10.2017 06:00:00 10,7 7,2 5 3 - - NW 1020,4 - 0,0
17.10.2017 05:00:00 12,5 8,2 16 9 - - WSW 1019,9 - 0,0
17.10.2017 04:00:00 13,4 8,9 18 10 48 26 WSW 1020,0 - 0,0
17.10.2017 03:00:00 14,1 9,5 24 13 - - WSW 1020,3 - 0,0
17.10.2017 02:00:00 14,7 9,9 24 13 54 29 WSW 1020,2 - 0,0
17.10.2017 01:00:00 14,9 9,5 31 17 54 29 WSW 1020,2 - 0,0
17.10.2017 00:00:00 14,8 8,6 35 19 59 32 WSW 1020,3 - 0,0
16.10.2017 23:00:00 15,0 10,0 37 20 59 32 WSW 1019,8 - 0,0
16.10.2017 22:00:00 15,4 10,5 37 20 59 32 WSW 1019,6 - 0,0
16.10.2017 21:00:00 15,2 10,6 37 20 68 37 SW 1019,1 - 0,0
16.10.2017 20:00:00 15,4 10,7 37 20 52 28 SW 1018,9 8 0,0
16.10.2017 19:00:00 15,9 11,4 37 20 55 30 SW 1018,4 8 -
16.10.2017 18:00:00 16,3 12,0 37 20 50 27 SW 1017,7 10 0,0
16.10.2017 17:00:00 16,6 12,4 34 18 46 25 SW 1017,5 9 0,0
16.10.2017 16:00:00 17,3 14,5 26 14 - - WSW 1017,2 8 0,0
16.10.2017 15:00:00 17,8 15,6 24 13 - - SSW 1016,7 9 0,0
16.10.2017 14:00:00 18,2 15,8 24 13 - - S 1016,5 10 0,0
16.10.2017 13:00:00 18,2 15,5 22 12 - - S 1016,4 10 0,0
16.10.2017 12:00:00 19,1 15,6 13 7 - - SSE 1016,5 10 0,0
16.10.2017 11:00:00 18,6 16,3 11 6 - - ESE 1016,3 10 0,0
16.10.2017 10:00:00 18,3 15,9 22 12 - - ESE 1015,6 10 0,0
16.10.2017 09:00:00 18,2 15,9 21 11 - - ESE 1015,8 - 0,0
16.10.2017 08:00:00 17,9 16,0 21 11 - - ESE 1016,0 - 0,0
16.10.2017 07:00:00 17,8 16,3 16 9 - - ESE 1016,1 - 0,0
16.10.2017 06:00:00 17,1 16,1 15 8 - - ESE 1016,4 - 0,0
16.10.2017 05:00:00 16,8 16,1 16 9 - - ESE 1016,8 - 0,0
16.10.2017 04:00:00 15,8 15,0 5 3 - - SE 1017,0 - 0,0
16.10.2017 03:00:00 16,1 15,2 9 5 - - S 1017,1 - 0,0
16.10.2017 02:00:00 16,7 15,5 13 7 - - S 1017,2 - 0,0
16.10.2017 01:00:00 16,8 15,6 9 5 - - SE 1017,5 - 0,0
16.10.2017 00:00:00 16,8 15,9 11 6 - - SE 1017,3 - 0,0
15.10.2017 23:00:00 16,5 15,7 15 8 - - ESE 1017,4 - 0,0
15.10.2017 22:00:00 15,7 15,2 13 7 - - ESE 1017,6 - 0,0
15.10.2017 21:00:00 14,8 14,2 9 5 - - ESE 1017,7 - 0,0
15.10.2017 20:00:00 14,9 14,2 8 4 - - SE 1018,0 - 0,0
15.10.2017 19:00:00 15,0 14,0 0 0 - - N 1017,8 6 0,0
15.10.2017 18:00:00 15,3 13,8 11 6 - - S 1017,9 7 0,0
15.10.2017 17:00:00 16,2 13,8 15 8 - - SSW 1018,0 7 0,0
15.10.2017 16:00:00 16,5 13,9 16 9 - - SSW 1018,3 7 0,0
15.10.2017 15:00:00 17,1 14,6 16 9 - - SSW 1018,5 6 0,0
15.10.2017 14:00:00 16,9 15,0 16 9 - - SSW 1018,7 6 0,0
15.10.2017 13:00:00 17,0 14,8 16 9 - - SSW 1019,0 7 0,0
15.10.2017 12:00:00 17,0 14,8 16 9 - - SW 1019,0 7 0,0
15.10.2017 11:00:00 16,9 15,0 18 10 - - SSW 1019,1 7 0,0
15.10.2017 10:00:00 16,4 15,2 15 8 - - SSW 1019,2 6 0,0
15.10.2017 09:00:00 16,1 14,7 24 13 - - SW 1019,1 - 0,0
15.10.2017 08:00:00 16,0 14,9 18 10 - - S 1018,7 - 0,0
15.10.2017 07:00:00 15,2 14,6 9 5 - - S 1018,8 - 0,0
15.10.2017 06:00:00 15,2 14,5 9 5 - - SE 1019,2 - 0,0

tt = temperature
td = dewpoint
ff = wind speed
fx = gusts
dd = wind direction
ppp = reduced air pressure
vv = visibility
rr = precipitation

Next stations